Flag for Canada Weather past 2 weeks in Stonewall, Manitoba, Canada

Now
63 °F

Mostly cloudy.


Feels Like: 63 °F
Forecast: 58 / 67 °F
Wind: 7 mph from North

Location: Winnipeg Int. Airportman.

Current Time: Aug 22, 2014 at 5:31:50 AM

Latest Report: Aug 22, 2014 at 5:00 AM


Visibility: 15 mi

Pressure: 29.96 "Hg

Humidity: 94%

Dew point: 61 °F

Location of StonewallLocation

Historic Weather in Stonewall — Graph

°F

Stonewall temperature yesterday

Maximum temperature yesterday: 77 °F (at 3:00 PM)
Minimum temperature yesterday: 66 °F (at 5:00 AM)
Average temperature yesterday: 70 °F

Past Weeks' High & Low Weather Summary

 TemperatureHumidityPressure
High90 °F (Aug 15, 4:00 PM)100% (Aug 11, 3:00 AM)30.23 "Hg (Aug 11, 3:00 AM)
Low46 °F (Aug 11, 6:00 AM)39% (Aug 11, 4:00 PM)29.68 "Hg (Aug 18, 3:00 PM)
Average69 °F74%29.94 "Hg
* Reported Aug 7 4:00 AM — Aug 22 4:00 AM, Stonewall, Weather by CustomWeather, © 2014

Note: Actual official high and low records may vary slightly from our data, if they occured in-between our weather recording intervals... More about our weather records

Advertising

Stonewall weather history for previous 24 hours

 ConditionsComfort  
Time TempWeatherWind HumidityBarometerVisibility
4:00 AM
Aug 22
64 °FMostly cloudy.7 mph94%29.95 "Hg15 mi
3:00 AM64 °FMostly cloudy.9 mph94%29.94 "Hg15 mi
2:46 AM64 °FMostly cloudy.9 mph94%29.95 "Hg15 mi
2:00 AM66 °FLow clouds.10 mph94%29.94 "Hg15 mi
1:00 AM66 °FMostly cloudy.13 mph94%29.93 "Hg10 mi
12:00 AM68 °FMostly cloudy.8 mph94%29.92 "Hg10 mi
11:00 PM
Aug 21
68 °FOvercast.6 mph100%29.92 "Hg10 mi
10:00 PM68 °FSprinkles. Mostly cloudy.2 mph100%29.92 "Hg8 mi
9:00 PM68 °FThunderstorms. Cloudy.3 mph100%29.91 "Hg10 mi
8:47 PM70 °FThunderstorms. Mostly cloudy.3 mph94%29.90 "Hg10 mi
8:00 PM70 °FSprinkles. Fog.2 mph94%29.88 "Hg6 mi
7:00 PM68 °FThunderstorms. Fog.9 mph94%29.87 "Hg1 mi
6:00 PM73 °FThunderstorms. Fog.8 mph89%29.85 "Hg6 mi
5:00 PM77 °FPartly sunny.8 mph74%29.83 "Hg15 mi
4:00 PM77 °FPartly sunny.6 mph69%29.83 "Hg15 mi
3:00 PM77 °FPartly sunny.6 mph74%29.82 "Hg15 mi
2:00 PM73 °FPartly sunny.8 mph78%29.82 "Hg15 mi
1:45 PM73 °FPartly sunny.9 mph83%29.82 "Hg10 mi
1:00 PM70 °FSprinkles. Overcast.6 mph94%29.82 "Hg15 mi
12:00 PM70 °FSprinkles. Mostly cloudy.3 mph88%29.82 "Hg15 mi
11:00 AM70 °FSprinkles. Cloudy.No wind83%29.83 "Hg15 mi
10:00 AM70 °FSprinkles. Cloudy.7 mph83%29.82 "Hg15 mi
9:00 AM68 °FSprinkles. Cloudy.6 mph88%29.80 "Hg15 mi
8:55 AM68 °FSprinkles. Mostly cloudy.8 mph88%29.80 "Hg15 mi
8:00 AM66 °FCloudy.8 mph88%29.81 "Hg15 mi
7:00 AM66 °FMostly cloudy.6 mph88%29.81 "Hg15 mi
6:00 AM66 °FMostly cloudy.8 mph88%29.79 "Hg15 mi
5:00 AM66 °FMostly cloudy.9 mph88%29.79 "Hg15 mi
Weather by CustomWeather, © 2014

See weather overviewHow to use our weather pages